Location: Góry Miechowskie
(50.3599°N, 20.1803°E)
Time: 22:18:20
(UTC+00:00)

Transit 2A Rocket - Pass Details

Date: 19 September 2024
Orbit: 582 x 908 km, 66.7° (Epoch: 09 October)

Event Time Altitude Azimuth Distance (km) Brightness Sun altitude
Exits shadow 00:04:59 22° 320° (NW) 1,865 7.1 -34.7°
Maximum altitude 00:06:02 23° 335° (NNW) 1,818 7.2 -34.6°
Drops below altitude 10° 00:10:47 10° 27° (NNE) 2,576 8.5 -34.2°
Sets 00:13:49 0° 42° (NE) 3,487 9.4 -34.0°
